TimeEDT,TemperatureF,Dew PointF,Humidity,Sea Level PressureIn,VisibilityMPH,Wind Direction,Wind SpeedMPH,Gust SpeedMPH,PrecipitationIn,Events,Conditions,WindDirDegrees,DateUTC
12:36 AM,71.6,62.6,73,30.08,10.0,ESE,3.5,-,N/A,,Clear,120,2014-08-24 04:36:00
12:56 AM,71.6,62.6,73,30.08,10.0,ESE,5.8,-,N/A,,Clear,110,2014-08-24 04:56:00
1:16 AM,71.2,62.8,75,30.08,10.0,ESE,4.6,-,N/A,,Clear,110,2014-08-24 05:16:00
1:31 AM,70.9,62.8,75,30.08,10.0,East,5.8,-,N/A,,Clear,100,2014-08-24 05:31:00
1:51 AM,70.7,62.8,76,30.08,10.0,ESE,5.8,-,N/A,,Clear,110,2014-08-24 05:51:00
2:11 AM,70.2,62.8,77,30.08,10.0,East,6.9,-,N/A,,Clear,100,2014-08-24 06:11:00
2:32 AM,69.8,62.6,78,30.08,10.0,East,5.8,-,N/A,,Clear,100,2014-08-24 06:32:00
2:52 AM,69.8,62.2,77,30.07,10.0,ESE,9.2,-,N/A,,Clear,110,2014-08-24 06:52:00
3:12 AM,69.1,61.9,78,30.07,10.0,East,9.2,-,N/A,,Clear,100,2014-08-24 07:12:00
3:32 AM,69.1,61.7,77,30.07,10.0,East,6.9,-,N/A,,Clear,100,2014-08-24 07:32:00
3:52 AM,68.9,61.7,78,30.07,10.0,ESE,4.6,-,N/A,,Clear,120,2014-08-24 07:52:00
4:12 AM,68.4,61.3,78,30.07,10.0,ESE,6.9,-,N/A,,Clear,120,2014-08-24 08:12:00
4:32 AM,68.2,61.3,79,30.07,10.0,Calm,Calm,-,N/A,,Clear,0,2014-08-24 08:32:00
4:51 AM,67.8,61.2,79,30.07,10.0,ESE,4.6,-,N/A,,Clear,110,2014-08-24 08:51:00
5:12 AM,67.5,61.2,80,30.07,10.0,ESE,4.6,-,N/A,,Clear,110,2014-08-24 09:12:00
5:33 AM,67.1,61.2,81,30.06,10.0,ESE,5.8,-,N/A,,Clear,110,2014-08-24 09:33:00
5:53 AM,67.1,61.3,82,30.07,10.0,ESE,5.8,-,N/A,,Clear,110,2014-08-24 09:53:00
6:13 AM,66.9,61.2,82,30.07,10.0,ESE,8.1,-,N/A,,Clear,110,2014-08-24 10:13:00
6:33 AM,66.7,61.2,82,30.07,10.0,ESE,6.9,-,N/A,,Clear,120,2014-08-24 10:33:00
6:53 AM,66.6,61.3,83,30.08,10.0,ESE,4.6,-,N/A,,Clear,120,2014-08-24 10:53:00
7:13 AM,66.4,61.3,84,30.08,10.0,SE,8.1,-,N/A,,Clear,130,2014-08-24 11:13:00
7:33 AM,66.2,61.3,84,30.08,10.0,ESE,9.2,-,N/A,,Clear,120,2014-08-24 11:33:00
7:53 AM,66.4,61.7,85,30.09,10.0,ESE,8.1,-,N/A,,Clear,120,2014-08-24 11:53:00
8:14 AM,66.7,62.1,85,30.10,5.0,ESE,9.2,-,N/A,,Haze,120,2014-08-24 12:14:00
8:34 AM,67.1,62.6,85,30.09,5.0,SE,8.1,-,N/A,,Mostly Cloudy,130,2014-08-24 12:34:00
8:54 AM,67.6,62.6,84,30.10,7.0,ESE,9.2,-,N/A,,Scattered Clouds,120,2014-08-24 12:54:00
9:14 AM,68.4,62.8,82,30.10,7.0,ESE,9.2,-,N/A,,Clear,120,2014-08-24 13:14:00
9:34 AM,69.1,63.0,81,30.09,7.0,ESE,5.8,-,N/A,,Clear,120,2014-08-24 13:34:00
9:54 AM,70.2,63.5,79,30.09,7.0,East,6.9,-,N/A,,Clear,100,2014-08-24 13:54:00
10:14 AM,71.4,63.9,77,30.09,7.0,ESE,6.9,-,N/A,,Clear,110,2014-08-24 14:14:00
10:34 AM,72.5,63.9,74,30.08,10.0,East,8.1,-,N/A,,Clear,100,2014-08-24 14:34:00
10:54 AM,73.4,64.0,72,30.08,10.0,ESE,4.6,-,N/A,,Clear,120,2014-08-24 14:54:00
11:14 AM,74.3,64.0,70,30.08,10.0,SE,4.6,-,N/A,,Clear,140,2014-08-24 15:14:00
11:35 AM,75.2,64.2,69,30.08,10.0,ESE,6.9,-,N/A,,Clear,120,2014-08-24 15:35:00
11:55 AM,77.2,64.0,64,30.08,10.0,ESE,8.1,-,N/A,,Clear,120,2014-08-24 15:55:00
12:15 PM,79.5,64.0,59,30.08,10.0,ESE,10.4,-,N/A,,Clear,120,2014-08-24 16:15:00
12:35 PM,80.8,63.1,55,30.08,10.0,South,11.5,18.4,N/A,,Clear,170,2014-08-24 16:35:00
12:55 PM,81.7,61.2,50,30.07,10.0,SE,11.5,16.1,N/A,,Clear,140,2014-08-24 16:55:00
1:15 PM,80.4,61.2,52,30.06,10.0,SSE,8.1,-,N/A,,Clear,160,2014-08-24 17:15:00
1:35 PM,80.2,61.7,53,30.07,10.0,SE,9.2,17.3,N/A,,Clear,130,2014-08-24 17:35:00
1:55 PM,80.6,62.2,53,30.06,10.0,SSE,5.8,-,N/A,,Clear,150,2014-08-24 17:55:00
2:16 PM,80.6,61.9,53,30.07,10.0,SE,8.1,-,N/A,,Clear,140,2014-08-24 18:16:00
2:36 PM,81.7,62.1,51,30.06,10.0,SE,8.1,-,N/A,,Scattered Clouds,130,2014-08-24 18:36:00
2:56 PM,82.2,60.1,47,30.05,10.0,SE,10.4,-,N/A,,Mostly Cloudy,140,2014-08-24 18:56:00
3:16 PM,82.2,59.9,47,30.05,10.0,SE,9.2,-,N/A,,Scattered Clouds,140,2014-08-24 19:16:00
3:36 PM,82.4,59.7,46,30.04,10.0,SSE,10.4,-,N/A,,Clear,160,2014-08-24 19:36:00
3:56 PM,84.4,60.1,44,30.04,10.0,South,10.4,-,N/A,,Clear,170,2014-08-24 19:56:00
4:11 PM,83.5,58.5,42,30.05,10.0,SSE,9.2,-,N/A,,Clear,160,2014-08-24 20:11:00
4:31 PM,83.1,58.1,42,30.05,10.0,SE,8.1,-,N/A,,Clear,130,2014-08-24 20:31:00
4:51 PM,82.4,59.2,45,30.04,10.0,SSE,9.2,-,N/A,,Clear,160,2014-08-24 20:51:00
5:11 PM,82.8,60.4,47,30.04,10.0,SE,6.9,-,N/A,,Clear,130,2014-08-24 21:11:00
5:32 PM,82.6,60.8,48,30.04,10.0,SE,8.1,-,N/A,,Clear,140,2014-08-24 21:32:00
5:52 PM,82.0,61.2,49,30.04,10.0,SE,6.9,-,N/A,,Clear,130,2014-08-24 21:52:00
6:12 PM,81.7,61.3,50,30.04,10.0,SE,8.1,-,N/A,,Clear,140,2014-08-24 22:12:00
6:32 PM,81.0,62.2,53,30.03,10.0,SE,8.1,-,N/A,,Clear,140,2014-08-24 22:32:00
6:52 PM,81.0,62.2,53,30.03,10.0,SE,9.2,-,N/A,,Clear,130,2014-08-24 22:52:00
7:12 PM,80.4,62.4,54,30.03,10.0,SSE,11.5,-,N/A,,Clear,150,2014-08-24 23:12:00
7:32 PM,79.2,62.2,56,30.03,10.0,SSE,11.5,-,N/A,,Clear,150,2014-08-24 23:32:00
7:52 PM,78.6,62.8,58,30.03,10.0,SSE,6.9,-,N/A,,Clear,150,2014-08-24 23:52:00
8:12 PM,77.4,63.1,61,30.03,10.0,SE,4.6,-,N/A,,Clear,140,2014-08-25 00:12:00
8:33 PM,76.3,63.0,63,30.03,10.0,SE,6.9,-,N/A,,Clear,130,2014-08-25 00:33:00
8:53 PM,75.2,63.0,66,30.03,10.0,SE,5.8,-,N/A,,Clear,130,2014-08-25 00:53:00
9:13 PM,74.3,62.8,67,30.03,10.0,ESE,4.6,-,N/A,,Clear,120,2014-08-25 01:13:00
9:33 PM,73.4,62.8,69,30.04,10.0,SE,4.6,-,N/A,,Clear,130,2014-08-25 01:33:00
9:53 PM,72.7,62.8,71,30.04,10.0,SE,5.8,-,N/A,,Clear,130,2014-08-25 01:53:00
10:13 PM,72.5,62.6,71,30.04,10.0,SE,5.8,-,N/A,,Clear,130,2014-08-25 02:13:00
10:33 PM,71.6,62.8,74,30.04,10.0,SE,4.6,-,N/A,,Clear,130,2014-08-25 02:33:00
10:53 PM,71.6,63.0,74,30.05,10.0,SE,5.8,-,N/A,,Clear,130,2014-08-25 02:53:00
11:13 PM,71.2,63.1,75,30.04,10.0,ESE,5.8,-,N/A,,Clear,120,2014-08-25 03:13:00
11:33 PM,70.9,63.5,77,30.05,10.0,SE,5.8,-,N/A,,Clear,130,2014-08-25 03:33:00
11:54 PM,70.9,63.5,77,30.04,10.0,SE,6.9,-,N/A,,Clear,130,2014-08-25 03:54:00